Dewpoint
47 47 49 49 49 50 50 50 50 51 52 52 55 58 57 56 59 59 58 57 55 54 54 53 52 53 45 38 35 40 43 42 39 32 23 21 21 20 16 18 23 22 21 23 21 23 23
47 47 48 49 49 49 49 50 50 51 52 53 52 54 57 57 58 59 58 57 55 54 54 53 52 53 45 32 35 39 38 34 34 29 26 25 25 26 24 25 24 24 24 23 24 24 24
46 47 48 48 49 49 49 49 50 51 51 52 52 53 58 57 57 58 58 57 55 54 54 53 52 51 44 34 39 39 40 37 36 31 29 31 29 27 27 24 26 24 20 18 19 21 21
46 47 47 48 48 48 48 49 51 50 50 52 52 53 57 57 56 58 58 56 55 54 54 53 53 48 38 42 44 42 41 38 38 36 31 31 29 28 27 27 24 21 19 11 16 22 21
48 48 48 47 48 49 49 49 50 50 49 51 52 51 56 56 56 57 57 56 54 54 53 53 49 45 38 44 43 42 39 36 33 33 32 31 29 26 26 23 19 20 5 11 10 15 13
49 48 48 48 48 49 49 49 50 49 49 50 52 52 54 56 57 57 57 55 54 53 52 52 50 41 41 34 40 37 41 37 32 30 30 29 30 25 26 21 4 4 13 19 14 18 24
47 48 48 49 48 49 49 49 49 49 49 49 52 51 51 56 56 56 55 53 48 47 49 43 41 34 33 38 38 35 36 34 31 28 25 29 27 20 12 22 18 17 19 17 22 23 21
48 49 49 49 49 49 49 49 49 49 48 49 51 51 51 56 56 55 54 49 47 43 41 46 45 42 41 40 35 37 35 32 29 26 28 30 25 25 25 22 20 16 13 14 17 21 24
45 48 48 49 50 49 49 49 49 49 48 48 51 52 51 56 55 54 52 49 46 45 38 42 43 41 40 39 35 35 38 34 29 26 26 24 27 30 26 26 25 24 20 19 18 24 28
44 45 47 49 49 50 50 49 49 49 48 47 50 51 51 55 52 53 51 50 47 42 28 28 41 41 38 38 34 35 39 37 35 24 27 24 25 30 28 27 27 23 27 26 24 26 25
43 44 46 46 49 49 49 49 49 49 49 48 50 51 50 54 51 50 50 47 48 32 10 20 39 42 38 31 30 32 35 38 35 32 31 27 33 26 26 30 31 28 29 28 27 28 30
43 45 46 48 49 49 49 49 48 49 49 49 50 51 51 53 52 50 51 48 44 23 12 20 38 39 37 33 28 32 31 37 37 34 35 29 34 35 32 31 32 34 33 32 32 31 29
47 46 45 49 49 49 49 48 48 48 49 49 49 51 51 53 49 50 50 45 32 21 20 19 33 37 35 34 29 28 29 31 29 29 25 28 32 31 32 30 32 33 31 28 27 28 26
47 45 45 48 49 49 49 48 48 49 49 49 48 51 51 51 52 50 48 40 25 23 19 26 34 35 30 34 31 28 27 29 30 29 23 21 16 28 30 30 29 30 31 26 21 22 21
43 46 45 48 48 48 48 48 48 49 48 48 49 50 49 51 53 49 43 32 24 23 21 30 32 31 29 31 30 27 26 26 30 29 21 23 21 27 27 27 28 28 30 32 29 30 28
41 42 46 46 46 46 47 48 48 49 48 48 44 47 46 52 53 46 38 29 26 25 23 26 29 29 27 27 28 24 26 26 25 30 28 27 25 31 28 29 28 26 30 29 31 26 25
38 41 41 44 46 45 47 48 48 47 46 48 44 38 47 53 51 43 33 27 29 29 25 21 32 33 30 29 30 24 30 31 26 28 29 26 30 32 35 30 29 29 28 31 31 30 25
37 40 41 41 43 46 46 47 48 46 46 46 41 32 51 53 41 39 34 30 30 31 35 33 32 30 35 33 32 28 28 31 34 29 28 28 28 25 28 36 36 33 30 29 29 29 30
40 37 40 41 41 42 45 46 47 46 45 43 36 38 45 49 32 33 35 33 30 30 32 34 37 37 35 37 35 35 34 40 40 37 30 28 27 27 32 36 36 34 36 33 31 32 29
37 39 39 40 41 41 42 45 46 46 46 43 38 33 36 44 39 35 35 34 32 34 33 36 36 39 39 37 39 37 38 42 40 40 41 34 37 33 29 31 35 34 35 35 33 31 31
35 37 38 40 41 41 42 45 47 47 46 43 39 34 37 33 35 37 36 35 34 33 34 35 35 35 38 37 37 39 41 43 44 42 42 41 37 38 38 38 36 35 34 35 34 33 31
35 36 38 39 40 41 45 46 47 46 45 41 34 34 38 36 38 37 36 35 34 35 34 33 32 33 36 37 38 34 39 40 40 43 42 42 37 39 37 38 37 35 36 34 35 35 33
35 35 37 37 40 41 43 47 46 47 44 40 40 41 39 38 37 36 35 35 35 35 37 34 35 37 37 36 39 42 44 43 42 41 40 38 37 35 33 37 36 33 35 36 34 34 34
35 35 36 37 38 39 41 44 46 46 43 41 40 41 37 34 36 35 37 37 36 36 35 37 39 37 40 43 44 43 42 42 44 43 42 38 35 33 32 31 26 35 36 36 36 36 36
34 35 35 37 38 37 39 41 44 47 46 43 43 39 37 32 37 37 37 37 38 38 37 38 41 42 43 40 35 32 32 33 35 41 40 38 34 31 28 28 31 34 35 35 35 36 38
36 36 36 36 38 38 38 40 41 43 45 43 42 43 38 35 34 37 36 36 36 37 37 39 42 44 42 36 33 29 27 30 30 32 40 37 36 34 30 27 25 30 31 35 36 32 37
35 36 37 37 37 38 38 38 40 41 42 41 39 43 39 34 37 38 36 36 39 37 34 37 38 39 39 35 31 30 29 33 29 29 30 33 33 30 30 28 28 29 29 33 29 27 35
36 36 36 37 38 38 38 37 39 40 40 36 36 40 39 36 37 39 39 37 36 36 33 35 35 34 34 32 32 30 30 31 30 31 32 31 29 29 30 27 24 30 28 26 28 31 32
36 37 36 37 39 38 38 37 37 39 40 34 32 36 42 38 37 42 44 44 40 39 37 37 35 33 34 33 32 32 30 31 28 26 32 30 32 30 30 28 29 29 26 27 30 29 27
Wind_Speed
33 33 32 31 29 30 30 28 25 25 23 23 23 29 30 30 25 22 21 19 16 12 8 5 8 13 5 2 11 5 1 3 5 2 1 1 0 3 5 2 6 8 8 8 9 14 10
35 35 33 34 33 32 33 32 29 26 25 25 25 27 31 29 25 23 22 20 17 12 8 5 5 9 1 11 4 4 5 2 3 1 1 1 1 1 4 3 4 4 11 17 11 9 8
36 36 36 36 36 36 35 35 33 28 25 24 24 27 31 29 27 24 23 21 17 12 9 4 2 2 4 18 1 4 10 6 4 2 0 2 2 1 1 4 4 6 15 16 16 10 8
42 41 41 39 39 37 38 36 35 31 27 30 27 23 31 30 27 26 23 21 17 12 8 4 0 1 9 8 7 13 3 6 6 6 2 2 2 1 2 4 5 5 3 8 4 3 3
45 43 43 42 40 40 40 39 38 33 29 29 27 28 28 31 29 26 23 21 17 11 5 4 2 3 10 5 7 14 11 7 7 6 4 1 2 3 1 3 5 2 10 11 12 8 9
46 44 43 43 40 41 40 40 38 35 33 32 28 23 22 32 30 27 23 20 13 8 4 2 3 2 10 7 6 4 10 16 4 6 3 4 2 5 5 9 21 11 9 8 12 2 5
36 38 41 42 40 42 41 42 42 40 36 33 29 26 25 33 31 29 28 17 13 5 9 13 12 9 3 4 3 5 7 13 6 4 12 6 8 22 34 23 15 2 9 13 8 8 8
33 32 35 37 38 39 41 43 43 42 35 34 31 28 26 33 35 35 27 19 22 7 8 27 15 19 15 4 1 6 15 9 9 14 10 5 25 24 2 14 19 22 23 24 22 20 9
34 29 32 34 36 38 40 43 42 41 38 30 37 28 23 34 36 32 31 26 20 6 1 6 24 16 11 8 8 9 15 9 9 19 23 20 7 20 22 14 14 21 23 19 20 12 13
37 32 26 33 35 36 40 41 41 40 34 31 30 26 28 34 35 30 28 22 14 7 5 8 12 11 15 8 11 17 16 7 8 22 14 18 16 5 16 14 19 25 19 23 17 7 14
41 38 32 35 40 38 38 40 39 41 36 36 34 31 32 38 24 38 26 20 8 6 8 12 13 11 18 26 12 20 20 16 14 14 11 15 12 21 22 20 20 10 9 15 19 19 11
48 40 30 35 39 39 38 39 39 39 37 34 30 34 31 36 22 37 33 17 5 12 17 9 12 18 19 24 9 6 22 8 8 8 14 9 4 10 12 15 22 4 8 9 1 3 20
47 24 14 17 32 35 35 36 38 39 35 33 31 27 30 29 28 38 34 16 18 21 8 12 12 17 20 17 24 14 25 32 24 15 33 14 26 5 5 6 6 13 10 5 5 8 17
31 1 3 12 22 27 31 34 35 36 31 30 31 33 33 36 30 43 29 23 17 28 18 9 15 24 21 17 21 14 25 26 35 13 5 23 18 29 19 25 11 19 15 14 12 16 14
45 24 3 7 15 22 26 29 31 32 30 22 16 30 26 35 40 40 41 43 23 22 35 11 20 17 13 17 15 18 25 31 29 35 21 15 14 6 12 37 26 11 22 15 11 1 8
43 40 30 5 14 20 22 25 29 32 30 22 5 12 34 24 41 40 49 32 35 13 24 22 17 15 20 24 15 26 23 26 19 39 13 5 6 9 14 7 23 27 13 8 11 13 20
40 39 36 33 13 15 20 23 26 31 30 25 14 7 18 25 34 43 46 45 32 12 13 40 18 11 14 18 17 26 23 16 36 27 34 9 4 4 9 15 20 13 26 11 11 16 14
32 34 33 29 30 13 19 23 26 29 29 23 7 12 20 36 27 41 46 50 11 14 4 8 5 7 18 21 19 21 23 19 22 22 31 30 3 21 22 6 6 20 20 31 20 12 17
25 30 29 30 28 25 14 24 27 31 32 12 6 8 3 38 13 38 41 37 17 23 13 9 8 5 4 13 14 20 17 5 15 28 24 20 13 17 9 9 15 20 16 26 31 4 32
32 24 28 28 27 29 26 21 28 29 34 18 7 8 2 20 8 32 34 40 38 15 5 6 6 6 6 9 13 15 16 6 8 11 13 27 12 20 32 12 4 11 30 26 29 25 28
28 30 27 28 28 30 38 26 31 32 34 16 9 5 5 21 25 22 28 27 34 29 21 14 10 17 9 9 9 11 11 6 3 4 6 10 25 25 29 13 8 11 17 30 33 44 28
28 28 29 31 33 39 42 37 39 34 37 14 4 4 2 19 25 28 26 27 42 30 25 34 28 24 19 18 14 14 10 9 10 9 9 1 10 21 33 22 15 18 13 20 34 32 16
28 29 30 32 36 42 49 32 39 33 31 5 3 2 2 17 18 27 22 24 35 26 11 30 33 20 25 40 24 3 5 8 9 15 10 6 7 11 29 19 12 19 38 21 10 8 17
28 29 31 33 34 37 42 36 21 32 33 3 7 2 5 13 25 30 26 27 26 39 30 12 20 29 10 8 4 2 4 7 13 18 17 11 11 5 11 12 21 14 13 25 23 16 6
27 28 29 31 32 33 34 36 32 11 24 4 1 4 6 5 22 23 22 31 19 22 30 15 13 12 21 11 6 5 5 5 10 26 33 24 17 8 8 14 5 7 12 22 24 22 18
27 28 28 28 30 28 29 30 29 24 12 9 3 1 3 9 11 7 17 26 18 17 8 7 3 24 14 6 5 11 11 8 10 5 9 15 19 20 8 8 17 11 18 19 13 19 26
26 27 27 27 27 27 25 24 25 24 11 4 6 5 4 6 1 5 12 15 9 10 12 7 13 10 9 17 14 13 12 6 14 16 11 14 14 26 15 10 9 9 8 21 17 13 34
25 25 25 24 25 26 26 24 24 25 22 4 5 4 5 5 4 2 2 7 9 14 13 9 10 1 7 13 13 10 11 14 7 11 14 20 18 12 10 11 18 12 15 21 9 4 20
27 25 23 22 21 20 23 24 25 26 28 9 8 5 7 11 6 5 7 5 3 3 12 16 4 8 10 7 6 6 7 9 10 13 7 14 13 15 18 12 3 18 4 5 12 19 13
Wind_Direction
283 279 268 265 262 258 244 243 246 251 261 263 292 222 219 216 216 207 214 219 223 230 240 269 314 326 338 270 252 310 178 327 315 304 286 14 246 167 211 217 303 244 275 293 271 287 276
279 274 268 262 257 253 250 237 236 240 249 254 268 297 213 213 213 201 207 212 218 218 223 249 315 325 217 251 261 338 55 352 294 344 348 108 145 236 283 243 228 291 278 284 287 279 262
281 271 266 261 256 249 246 235 229 230 244 251 262 296 208 206 202 201 201 203 208 210 208 221 306 16 236 237 146 323 319 291 309 331 84 103 77 102 332 270 316 285 298 311 275 264 244
276 269 263 257 252 245 241 236 221 221 235 241 245 267 209 202 197 197 196 193 195 196 202 190 257 135 247 250 281 280 230 278 258 248 238 181 30 64 201 304 325 290 281 288 281 120 234
274 264 259 254 249 242 235 231 220 213 225 238 240 246 243 194 188 190 191 182 178 179 166 182 177 197 265 302 233 251 196 201 210 219 241 210 124 210 246 212 301 257 256 250 295 227 236
277 258 253 250 248 239 230 226 219 209 215 233 230 240 261 187 181 180 176 155 150 135 170 180 264 277 248 223 210 211 184 175 154 159 175 186 130 191 217 181 238 225 229 246 251 288 160
291 265 254 246 244 234 227 221 216 207 210 223 222 227 239 187 172 167 148 129 138 198 207 193 189 210 332 246 284 198 148 145 139 148 192 194 190 211 223 209 234 289 243 251 241 251 314
297 280 254 244 242 230 226 221 212 204 205 213 219 217 217 195 166 161 166 184 186 168 206 234 243 239 285 13 285 195 143 145 165 190 162 174 227 228 227 203 226 244 260 263 278 273 261
332 304 261 249 240 232 226 218 211 201 200 206 218 206 207 190 161 164 186 187 182 156 244 206 219 220 233 185 232 215 179 154 175 189 194 207 206 225 211 222 217 237 239 255 256 307 285
320 311 298 255 240 229 217 213 208 198 196 200 224 198 207 177 162 179 191 180 171 187 269 244 199 227 200 176 262 204 194 158 197 203 193 224 235 225 198 226 209 244 219 236 256 270 268
315 306 287 285 239 221 209 207 204 194 192 200 209 200 195 187 170 180 173 165 145 141 234 204 186 174 172 184 135 204 192 209 203 189 178 216 203 214 222 221 200 231 186 214 234 249 262
311 295 283 288 218 210 204 202 200 194 192 194 211 195 187 206 183 170 163 161 138 173 231 200 145 170 153 198 198 108 180 194 192 221 238 218 207 193 215 227 210 135 243 272 176 235 256
310 271 286 262 196 197 198 198 194 193 188 186 208 197 183 217 180 159 163 155 167 194 180 189 172 171 172 177 199 167 182 192 195 194 231 234 240 240 193 190 174 191 169 235 252 212 251
7 75 20 213 190 192 192 192 192 188 182 188 209 197 196 216 174 153 162 175 188 207 197 163 155 158 183 154 200 178 172 198 212 207 162 206 243 208 204 217 192 201 182 201 242 239 265
8 358 21 201 187 189 191 191 189 181 186 198 221 184 196 214 172 159 164 187 196 200 200 165 143 156 190 187 171 181 191 200 200 201 205 187 239 190 201 215 194 208 215 222 261 147 286
7 13 12 266 207 196 196 195 192 185 182 179 196 228 202 206 173 163 172 186 206 189 182 189 168 176 178 181 168 186 178 205 211 206 201 208 267 211 201 176 221 219 173 194 205 240 246
6 7 12 16 322 220 206 198 197 199 179 174 195 238 199 191 171 168 183 197 204 182 163 190 200 165 178 174 181 189 194 203 198 192 202 203 207 191 165 197 182 198 230 222 209 214 232
10 6 7 10 7 321 233 212 195 205 183 175 211 205 167 170 181 175 183 198 170 170 136 168 157 167 173 181 181 189 206 203 187 176 195 208 215 255 237 226 194 217 213 205 211 218 229
4 2 2 1 359 353 326 235 207 200 186 156 240 194 309 182 178 172 197 201 194 180 179 153 166 176 141 179 187 199 203 210 184 183 177 169 213 246 269 251 259 239 226 216 221 182 230
358 4 358 354 350 337 322 286 219 202 183 177 185 186 246 187 114 180 178 196 214 225 244 137 155 106 153 184 211 198 208 165 177 185 181 173 184 206 232 220 212 220 228 219 214 226 232
0 358 360 351 346 332 310 260 207 199 176 182 188 207 235 172 199 182 188 187 198 210 216 200 220 210 161 195 204 199 188 144 118 158 176 184 222 226 246 240 226 252 247 220 216 224 211
3 359 357 356 351 344 342 185 183 190 172 182 173 179 224 166 172 174 185 185 196 193 186 217 222 223 217 227 207 233 218 196 201 174 193 204 237 228 245 238 225 239 241 235 221 227 223
3 1 360 2 360 359 8 169 166 175 166 158 204 259 359 165 165 183 192 182 198 183 212 215 209 194 207 227 220 249 305 214 190 192 161 172 187 220 243 234 210 248 227 202 200 185 198
1 3 2 5 7 8 8 28 185 174 175 130 173 158 142 180 173 193 192 200 186 198 202 198 188 196 202 134 129 324 258 251 206 212 198 197 194 204 245 146 220 259 194 198 190 197 210
360 1 4 4 11 10 14 13 25 141 186 159 128 181 143 142 187 192 182 196 194 200 208 188 195 177 125 101 142 197 210 227 238 230 209 189 177 197 198 214 324 261 233 191 183 219 220
359 1 1 3 6 13 13 14 17 33 59 106 30 75 100 123 205 159 162 186 185 185 161 184 51 148 133 145 148 194 203 181 197 218 194 172 180 196 189 213 221 228 201 182 146 251 202
355 357 358 360 1 5 12 12 18 25 23 126 62 14 97 115 73 130 187 185 166 153 165 149 138 181 171 181 193 204 219 194 180 184 173 180 188 204 207 224 266 237 160 143 176 232 187
351 354 355 356 358 359 2 6 9 12 19 94 108 45 116 110 71 78 78 153 153 181 178 161 119 192 149 187 189 178 200 200 181 181 178 174 177 196 196 212 251 185 157 191 205 68 160
343 348 351 352 355 360 1 0 6 9 10 25 67 35 51 73 75 25 45 43 7 124 161 164 182 149 169 172 191 176 188 170 171 197 196 200 193 188 189 208 179 182 194 189 147 151 156